Time,TemperatureF,DewpointF,PressureIn,WindDirection,WindDirectionDegrees,WindSpeedMPH,WindSpeedGustMPH,Humidity,HourlyPrecipIn,Conditions,Clouds,dailyrainin,SoftwareType,DateUTC
2013-06-15 00:02:00,61.0,46.0,30.04,ENE,72,0.0,0.0,58,0.00,,,0.00,,2013-06-15 04:02:00,
2013-06-15 00:12:00,61.0,47.0,30.03,ENE,72,0.0,0.0,59,0.00,,,0.00,,2013-06-15 04:12:00,
2013-06-15 00:22:00,61.0,47.0,30.03,ENE,72,0.0,0.0,60,0.00,,,0.00,,2013-06-15 04:22:00,
2013-06-15 00:34:00,60.0,47.0,30.03,ENE,72,0.0,0.0,62,0.00,,,0.00,,2013-06-15 04:34:00,
2013-06-15 00:43:00,60.0,47.0,30.03,ENE,72,0.0,0.0,62,0.00,,,0.00,,2013-06-15 04:43:00,
2013-06-15 00:53:00,60.0,47.0,30.03,ENE,72,0.0,0.0,62,0.00,,,0.00,,2013-06-15 04:53:00,
2013-06-15 01:02:00,60.0,48.0,30.02,ENE,72,0.0,1.0,64,0.00,,,0.00,,2013-06-15 05:02:00,
2013-06-15 01:12:00,60.0,47.0,30.02,ENE,72,0.0,0.0,63,0.00,,,0.00,,2013-06-15 05:12:00,
2013-06-15 01:22:00,60.0,47.0,30.01,ENE,72,0.0,1.0,62,0.00,,,0.00,,2013-06-15 05:22:00,
2013-06-15 01:34:00,60.0,47.0,30.01,ENE,72,0.0,0.0,63,0.00,,,0.00,,2013-06-15 05:34:00,
2013-06-15 01:43:00,60.0,48.0,30.01,ENE,72,0.0,0.0,64,0.00,,,0.00,,2013-06-15 05:43:00,
2013-06-15 01:52:00,60.0,48.0,30.01,ENE,72,0.0,0.0,64,0.00,,,0.00,,2013-06-15 05:52:00,
2013-06-15 02:02:00,60.0,47.0,30.02,ENE,72,0.0,0.0,63,0.00,,,0.00,,2013-06-15 06:02:00,
2013-06-15 02:12:00,59.0,47.0,30.01,ENE,72,0.0,1.0,64,0.00,,,0.00,,2013-06-15 06:12:00,
2013-06-15 02:24:00,59.0,47.0,30.01,ENE,72,0.0,1.0,64,0.00,,,0.00,,2013-06-15 06:24:00,
2013-06-15 02:33:00,59.0,47.0,30.01,ENE,72,0.0,1.0,64,0.00,,,0.00,,2013-06-15 06:33:00,
2013-06-15 02:43:00,59.0,47.0,30.01,ENE,72,0.0,1.0,64,0.00,,,0.00,,2013-06-15 06:43:00,
2013-06-15 02:53:00,59.0,48.0,30.01,ENE,76,0.0,1.0,67,0.00,,,0.00,,2013-06-15 06:53:00,
2013-06-15 03:01:00,59.0,49.0,30.00,ESE,107,1.0,3.0,69,0.00,,,0.00,,2013-06-15 07:01:00,
2013-06-15 03:11:00,59.0,49.0,30.01,SE,126,0.0,3.0,70,0.00,,,0.00,,2013-06-15 07:11:00,
2013-06-15 03:23:00,59.0,48.0,30.02,SE,126,0.0,0.0,68,0.00,,,0.00,,2013-06-15 07:23:00,
2013-06-15 03:33:00,58.0,47.0,30.02,SE,126,0.0,0.0,68,0.00,,,0.00,,2013-06-15 07:33:00,
2013-06-15 03:43:00,58.0,47.0,30.02,SE,126,0.0,0.0,68,0.00,,,0.00,,2013-06-15 07:43:00,
2013-06-15 03:53:00,58.0,47.0,30.02,SE,126,0.0,0.0,68,0.00,,,0.00,,2013-06-15 07:53:00,
2013-06-15 04:02:00,58.0,48.0,30.02,SE,126,0.0,0.0,69,0.00,,,0.00,,2013-06-15 08:02:00,
2013-06-15 04:11:00,58.0,48.0,30.02,SE,126,0.0,0.0,69,0.00,,,0.00,,2013-06-15 08:11:00,
2013-06-15 04:22:00,58.0,48.0,30.02,SE,126,0.0,0.0,69,0.00,,,0.00,,2013-06-15 08:22:00,
2013-06-15 04:33:00,58.0,48.0,30.02,SE,126,0.0,0.0,69,0.00,,,0.00,,2013-06-15 08:33:00,
2013-06-15 04:43:00,58.0,48.0,30.02,SE,126,0.0,0.0,69,0.00,,,0.00,,2013-06-15 08:43:00,
2013-06-15 04:53:00,57.0,47.0,30.03,SE,126,0.0,0.0,68,0.00,,,0.00,,2013-06-15 08:53:00,
2013-06-15 05:02:00,57.0,47.0,30.03,SE,126,0.0,0.0,69,0.00,,,0.00,,2013-06-15 09:02:00,
2013-06-15 05:12:00,57.0,47.0,30.03,SE,126,0.0,0.0,69,0.00,,,0.00,,2013-06-15 09:12:00,
2013-06-15 05:22:00,57.0,47.0,30.03,SE,126,0.0,0.0,69,0.00,,,0.00,,2013-06-15 09:22:00,
2013-06-15 05:33:00,57.0,47.0,30.03,SE,126,0.0,0.0,69,0.00,,,0.00,,2013-06-15 09:33:00,
2013-06-15 05:43:00,57.0,47.0,30.03,SE,126,0.0,0.0,70,0.00,,,0.00,,2013-06-15 09:43:00,
2013-06-15 05:52:00,57.0,47.0,30.02,SE,126,0.0,0.0,70,0.00,,,0.00,,2013-06-15 09:52:00,
2013-06-15 06:02:00,57.0,47.0,30.03,SE,126,0.0,0.0,70,0.00,,,0.00,,2013-06-15 10:02:00,
2013-06-15 06:11:00,57.0,47.0,30.03,SE,126,0.0,0.0,70,0.00,,,0.00,,2013-06-15 10:11:00,
2013-06-15 06:23:00,57.0,48.0,30.02,SE,126,0.0,0.0,71,0.00,,,0.00,,2013-06-15 10:23:00,
2013-06-15 06:33:00,57.0,47.0,30.03,SE,126,0.0,0.0,70,0.00,,,0.00,,2013-06-15 10:33:00,
2013-06-15 06:44:00,56.0,47.0,30.03,SE,126,0.0,0.0,71,0.00,,,0.00,,2013-06-15 10:44:00,
2013-06-15 06:53:00,57.0,48.0,30.03,SE,126,0.0,0.0,71,0.00,,,0.00,,2013-06-15 10:53:00,
2013-06-15 07:02:00,57.0,48.0,30.03,SE,126,0.0,0.0,72,0.00,,,0.00,,2013-06-15 11:02:00,
2013-06-15 07:11:00,57.0,48.0,30.04,SE,126,0.0,0.0,73,0.00,,,0.00,,2013-06-15 11:11:00,
2013-06-15 07:22:00,58.0,49.0,30.04,SE,126,0.0,0.0,73,0.00,,,0.00,,2013-06-15 11:22:00,
2013-06-15 07:33:00,58.0,50.0,30.05,SE,126,0.0,0.0,74,0.00,,,0.00,,2013-06-15 11:33:00,
2013-06-15 07:43:00,58.0,50.0,30.05,SE,126,0.0,0.0,74,0.00,,,0.00,,2013-06-15 11:43:00,
2013-06-15 07:53:00,58.0,50.0,30.05,SE,126,0.0,1.0,74,0.00,,,0.00,,2013-06-15 11:53:00,
2013-06-15 08:02:00,58.0,50.0,30.05,SE,126,0.0,0.0,74,0.00,,,0.00,,2013-06-15 12:02:00,
2013-06-15 08:12:00,58.0,49.0,30.05,SE,126,0.0,2.0,73,0.00,,,0.00,,2013-06-15 12:12:00,
2013-06-15 08:22:00,59.0,50.0,30.05,SE,126,0.0,1.0,73,0.00,,,0.00,,2013-06-15 12:22:00,
2013-06-15 08:33:00,59.0,50.0,30.05,SE,126,0.0,1.0,73,0.00,,,0.00,,2013-06-15 12:33:00,
2013-06-15 08:43:00,59.0,50.0,30.05,South,169,1.0,3.0,71,0.00,,,0.00,,2013-06-15 12:43:00,
2013-06-15 08:52:00,59.0,50.0,30.05,South,169,1.0,3.0,71,0.00,,,0.00,,2013-06-15 12:52:00,
2013-06-15 09:02:00,60.0,50.0,30.05,West,268,1.0,6.0,69,0.00,,,0.00,,2013-06-15 13:02:00,
2013-06-15 09:11:00,60.0,50.0,30.05,West,268,1.0,6.0,69,0.00,,,0.00,,2013-06-15 13:11:00,
2013-06-15 09:22:00,61.0,50.0,30.05,West,262,1.0,6.0,67,0.00,,,0.00,,2013-06-15 13:22:00,
2013-06-15 09:32:00,61.0,50.0,30.05,West,264,1.0,5.0,68,0.00,,,0.00,,2013-06-15 13:32:00,
2013-06-15 09:44:00,62.0,51.0,30.04,West,261,3.0,7.0,67,0.00,,,0.00,,2013-06-15 13:44:00,
2013-06-15 09:53:00,62.0,51.0,30.04,West,261,3.0,7.0,67,0.00,,,0.00,,2013-06-15 13:53:00,
2013-06-15 10:01:00,62.0,51.0,30.04,West,263,2.0,5.0,67,0.00,,,0.00,,2013-06-15 14:01:00,
2013-06-15 10:12:00,62.0,51.0,30.04,West,263,2.0,5.0,67,0.00,,,0.00,,2013-06-15 14:12:00,
2013-06-15 10:22:00,66.0,51.0,30.03,West,268,3.0,6.0,59,0.00,,,0.00,,2013-06-15 14:22:00,
2013-06-15 10:34:00,67.0,52.0,30.03,WNW,283,3.0,10.0,58,0.00,,,0.00,,2013-06-15 14:34:00,
2013-06-15 10:43:00,70.0,54.0,30.02,West,264,3.0,8.0,56,0.00,,,0.00,,2013-06-15 14:43:00,
2013-06-15 10:54:00,70.0,55.0,30.02,West,264,0.0,6.0,58,0.00,,,0.00,,2013-06-15 14:54:00,
2013-06-15 11:02:00,70.0,54.0,30.02,West,273,2.0,7.0,57,0.00,,,0.00,,2013-06-15 15:02:00,
2013-06-15 11:11:00,69.0,54.0,30.02,West,273,0.0,7.0,58,0.00,,,0.00,,2013-06-15 15:11:00,
2013-06-15 11:22:00,69.0,54.0,30.01,WNW,291,1.0,5.0,59,0.00,,,0.00,,2013-06-15 15:22:00,
2013-06-15 11:33:00,69.0,53.0,30.01,West,271,2.0,6.0,57,0.00,,,0.00,,2013-06-15 15:33:00,
2013-06-15 11:43:00,69.0,54.0,30.01,West,262,2.0,5.0,59,0.00,,,0.00,,2013-06-15 15:43:00,
2013-06-15 11:53:00,69.0,53.0,30.00,West,280,0.0,3.0,57,0.00,,,0.00,,2013-06-15 15:53:00,
2013-06-15 12:01:00,69.0,53.0,30.00,West,280,0.0,3.0,57,0.00,,,0.00,,2013-06-15 16:01:00,
2013-06-15 12:11:00,69.0,56.0,29.99,ESE,112,1.0,3.0,63,0.00,,,0.00,,2013-06-15 16:11:00,
2013-06-15 12:22:00,69.0,56.0,29.99,ESE,112,1.0,3.0,63,0.00,,,0.00,,2013-06-15 16:22:00,
2013-06-15 12:33:00,69.0,55.0,29.99,SSE,151,3.0,5.0,62,0.00,,,0.00,,2013-06-15 16:33:00,
2013-06-15 12:43:00,69.0,55.0,29.98,SSE,149,0.0,5.0,62,0.00,,,0.00,,2013-06-15 16:43:00,
2013-06-15 12:53:00,69.0,55.0,29.98,SSE,162,2.0,6.0,61,0.00,,,0.00,,2013-06-15 16:53:00,
2013-06-15 13:02:00,69.0,56.0,29.97,SSE,162,0.0,8.0,64,0.00,,,0.00,,2013-06-15 17:02:00,
2013-06-15 13:12:00,69.0,55.0,29.97,SSE,162,0.0,5.0,62,0.00,,,0.00,,2013-06-15 17:12:00,
2013-06-15 14:01:00,70.0,56.0,29.97,SSE,150,0.0,6.0,61,0.00,,,0.00,,2013-06-15 18:01:00,
2013-06-15 14:53:00,71.0,56.0,29.96,SSE,156,2.0,8.0,59,0.00,,,0.00,,2013-06-15 18:53:00,
2013-06-15 15:01:00,71.0,56.0,29.96,South,170,2.0,8.0,59,0.00,,,0.00,,2013-06-15 19:01:00,
2013-06-15 15:12:00,71.0,55.0,29.96,South,170,1.0,7.0,57,0.00,,,0.00,,2013-06-15 19:12:00,
2013-06-15 15:22:00,72.0,54.0,29.96,West,277,1.0,8.0,54,0.00,,,0.00,,2013-06-15 19:22:00,
2013-06-15 15:33:00,72.0,54.0,29.96,West,277,1.0,8.0,54,0.00,,,0.00,,2013-06-15 19:33:00,
2013-06-15 15:43:00,71.0,52.0,29.96,West,269,2.0,8.0,52,0.00,,,0.00,,2013-06-15 19:43:00,
2013-06-15 15:52:00,71.0,53.0,29.96,West,274,2.0,7.0,53,0.00,,,0.00,,2013-06-15 19:52:00,
2013-06-15 16:02:00,71.0,52.0,29.96,West,261,5.0,7.0,51,0.00,,,0.00,,2013-06-15 20:02:00,
2013-06-15 16:11:00,71.0,52.0,29.96,WNW,285,4.0,10.0,51,0.00,,,0.00,,2013-06-15 20:11:00,
2013-06-15 16:22:00,71.0,51.0,29.96,West,270,2.0,10.0,50,0.00,,,0.00,,2013-06-15 20:22:00,
2013-06-15 16:33:00,72.0,52.0,29.96,West,267,4.0,7.0,50,0.00,,,0.00,,2013-06-15 20:33:00,
2013-06-15 16:43:00,72.0,54.0,29.96,WNW,285,1.0,3.0,53,0.00,,,0.00,,2013-06-15 20:43:00,
2013-06-15 16:53:00,71.0,52.0,29.96,WNW,283,1.0,3.0,52,0.00,,,0.00,,2013-06-15 20:53:00,
2013-06-15 17:02:00,71.0,52.0,29.96,WNW,283,1.0,3.0,52,0.00,,,0.00,,2013-06-15 21:02:00,
2013-06-15 17:12:00,71.0,53.0,29.95,SSW,200,1.0,3.0,53,0.00,,,0.00,,2013-06-15 21:12:00,
2013-06-15 17:22:00,71.0,52.0,29.95,SSW,211,1.0,6.0,52,0.00,,,0.00,,2013-06-15 21:22:00,
2013-06-15 17:33:00,71.0,53.0,29.95,West,272,3.0,8.0,53,0.00,,,0.00,,2013-06-15 21:33:00,
2013-06-15 17:42:00,71.0,52.0,29.95,West,271,1.0,8.0,52,0.00,,,0.00,,2013-06-15 21:42:00,
2013-06-15 17:52:00,71.0,53.0,29.95,West,264,3.0,8.0,53,0.00,,,0.00,,2013-06-15 21:52:00,
2013-06-15 18:11:00,71.0,53.0,29.94,West,272,2.0,7.0,53,0.00,,,0.00,,2013-06-15 22:11:00,
2013-06-15 18:22:00,71.0,53.0,29.93,West,267,0.0,7.0,53,0.00,,,0.00,,2013-06-15 22:22:00,
2013-06-15 18:42:00,71.0,54.0,29.93,West,259,4.0,12.0,55,0.00,,,0.00,,2013-06-15 22:42:00,
2013-06-15 19:12:00,70.0,54.0,29.93,West,262,3.0,13.0,56,0.00,,,0.00,,2013-06-15 23:12:00,
2013-06-15 19:22:00,70.0,54.0,29.93,WNW,286,4.0,12.0,57,0.00,,,0.00,,2013-06-15 23:22:00,
2013-06-15 19:33:00,70.0,54.0,29.93,West,261,5.0,14.0,57,0.00,,,0.00,,2013-06-15 23:33:00,
2013-06-15 19:42:00,70.0,55.0,29.93,West,267,5.0,14.0,58,0.00,,,0.00,,2013-06-15 23:42:00,
2013-06-15 19:53:00,69.0,55.0,29.93,West,260,1.0,7.0,61,0.00,,,0.00,,2013-06-15 23:53:00,
2013-06-15 20:02:00,69.0,55.0,29.93,West,268,2.0,7.0,61,0.00,,,0.00,,2013-06-16 00:02:00,
2013-06-15 20:11:00,69.0,55.0,29.92,WSW,258,3.0,10.0,61,0.00,,,0.00,,2013-06-16 00:11:00,
2013-06-15 20:22:00,69.0,54.0,29.92,West,272,1.0,6.0,59,0.00,,,0.00,,2013-06-16 00:22:00,
2013-06-15 20:34:00,69.0,54.0,29.92,West,262,1.0,6.0,59,0.00,,,0.00,,2013-06-16 00:34:00,
2013-06-15 20:43:00,69.0,54.0,29.92,West,269,0.0,7.0,59,0.00,,,0.00,,2013-06-16 00:43:00,
2013-06-15 20:52:00,69.0,54.0,29.91,West,270,1.0,3.0,59,0.00,,,0.00,,2013-06-16 00:52:00,
2013-06-15 21:01:00,69.0,55.0,29.91,West,270,1.0,3.0,60,0.00,,,0.00,,2013-06-16 01:01:00,
2013-06-15 21:11:00,68.0,54.0,29.92,West,270,1.0,3.0,61,0.00,,,0.00,,2013-06-16 01:11:00,
2013-06-15 21:22:00,68.0,54.0,29.92,West,276,1.0,6.0,62,0.00,,,0.00,,2013-06-16 01:22:00,
2013-06-15 21:33:00,68.0,54.0,29.92,West,277,1.0,3.0,62,0.00,,,0.00,,2013-06-16 01:33:00,
2013-06-15 21:42:00,68.0,55.0,29.91,West,275,1.0,5.0,63,0.00,,,0.00,,2013-06-16 01:42:00,
2013-06-15 21:53:00,68.0,55.0,29.92,West,275,1.0,5.0,63,0.00,,,0.00,,2013-06-16 01:53:00,
2013-06-15 22:02:00,68.0,55.0,29.92,West,275,0.0,1.0,63,0.00,,,0.00,,2013-06-16 02:02:00,
2013-06-15 22:12:00,68.0,55.0,29.92,West,275,0.0,2.0,63,0.00,,,0.00,,2013-06-16 02:12:00,
2013-06-15 22:22:00,68.0,55.0,29.92,West,275,0.0,0.0,64,0.00,,,0.00,,2013-06-16 02:22:00,
2013-06-15 22:33:00,68.0,55.0,29.92,West,275,0.0,0.0,64,0.00,,,0.00,,2013-06-16 02:33:00,
2013-06-15 22:43:00,68.0,55.0,29.92,West,275,0.0,0.0,64,0.00,,,0.00,,2013-06-16 02:43:00,
2013-06-15 22:53:00,67.0,54.0,29.92,West,276,0.0,1.0,63,0.00,,,0.00,,2013-06-16 02:53:00,
2013-06-15 23:02:00,67.0,54.0,29.92,West,275,0.0,0.0,63,0.00,,,0.00,,2013-06-16 03:02:00,
2013-06-15 23:12:00,67.0,54.0,29.92,West,275,0.0,1.0,63,0.00,,,0.00,,2013-06-16 03:12:00,
2013-06-15 23:22:00,67.0,54.0,29.92,West,275,0.0,0.0,63,0.00,,,0.00,,2013-06-16 03:22:00,
2013-06-15 23:43:00,66.0,53.0,29.91,West,275,0.0,1.0,64,0.00,,,0.00,,2013-06-16 03:43:00,
2013-06-15 23:53:00,66.0,54.0,29.90,West,275,0.0,0.0,66,0.00,,,0.00,,2013-06-16 03:53:00,